Tracking 35274 objects as of 11-Sep-2026
HD Live streaming from Space Station
objects crossing your sky now

COSMOS 1484 DEB


COSMOS 1484 DEB is no longer on orbit


NORAD ID: 22899
Int'l Code: 1983-075R
Launch date: July 24, 1983
Source: Commonwealth of Independent States (former USSR) (CIS)
Launch site: TYURATAM MISSILE AND SPACE COMPLEX (TTMTR)
Decay date: 1994-04-01

Note: This is SATELLITE DEBRIS
Your satellite tracking list
Your tracking list is empty




NASA's NSSDC Master Catalog

Two Line Element Set (TLE):
1 22899U 83075  R 94090.44004923  .71931028 +00000-0 +87487-1 0  9997
2 22899 099.0501 142.6929 0038705 210.4066 149.4714 15.73178367017715
Source of the keplerian elements: AFSPC